Tracking 29892 objects as of 21-Nov-2024
HD Live streaming from Space Station
objects crossing your sky now

SL-8 R/B

Track SL-8 R/B now!
10-day predictions


NORAD ID: 18130
Int'l Code: 1987-054B
Perigee: 970.1 km
Apogee: 994.1 km
Inclination: 82.9 °
Period: 104.6 minutes
Semi major axis: 7353 km
RCS: 5.1592 m2 (large)
Launch date: June 23, 1987
Source: Commonwealth of Independent States (former USSR) (CIS)
Launch site: PLESETSK MISSILE AND SPACE COMPLEX (PKMTR)

Note: This is a ROCKET BODY
Your satellite tracking list
Your tracking list is empty




NASA's NSSDC Master Catalog

Two Line Element Set (TLE):
1 18130U 87054B   24326.07528398  .00000236  00000-0  22461-3 0  9995
2 18130  82.9226 328.2199 0016304 342.2304  17.8281 13.76878405879257
Source of the keplerian elements: AFSPC